Regional Weather Roundup
Issued by NWS Huntsville, AL

Home | Current Version | Previous Version | Text Only | Print | Product List | Glossary On
Versions: 1 2 3 4 5 6 7 8 9 10 11 12 13 14 15 16 17 18 19 20 21 22 23 24 25 26 27 28
000
ASUS44 KHUN 251210
RWRHUN

WEATHER ROUNDUP FOR THE TENNESSEE VALLEY
NATIONAL WEATHER SERVICE HUNTSVILLE AL
600 AM CST SUN FEB 25 2018

ALZ001>004-251300-
NORTHWEST ALABAMA

CITY           SKY/WX    TMP DP  RH WIND       PRES   REMARKS
SHOALS AIRPORT CLOUDY    55  51  86 W5        30.06R
6HR MIN TEMP:  54; 6HR MAX TEMP:  72; 6HR PCP:  0.72;

$$

ALZ005>007-016-251300-
NORTH CENTRAL ALABAMA

CITY           SKY/WX    TMP DP  RH WIND       PRES   REMARKS
DECATUR AP     LGT RAIN  53  53 100 S5        30.06R
6HR MIN TEMP:  53; 6HR MAX TEMP:  70; 6HR PCP:  0.84;

HUNTSVILLE AP  LGT RAIN  54  52  93 S5        30.06R
6HR MIN TEMP:  54; 6HR MAX TEMP:  71; 6HR PCP:  0.40;

MERIDIANVILLE  LGT RAIN  53  52  94 S6        30.06R
REDSTONE ARSN  LGT RAIN  54  54 100 SW3       30.05R
VINEMONT AP    LGT RAIN  51  50  96 CALM      30.08R
$$

ALZ008>010-251300-
NORTHEAST ALABAMA

CITY           SKY/WX    TMP DP  RH WIND       PRES   REMARKS
ALBERTVILLE    RAIN      54  54 100 CALM      30.06S
FORT PAYNE     RAIN      55  54  94 NW3       30.05R
SCOTTSBORO AP  LGT RAIN  54  54 100 SW5       30.06S
$$

TNZ076-096-097-251300-
SOUTHEASTERN MIDDLE TENNESSEE

CITY           SKY/WX    TMP DP  RH WIND       PRES   REMARKS
TULLAHOMA      CLOUDY    52  52 100 S5        30.02F
WINCHESTER     CLOUDY    52  52 100 CALM      30.06R
$$

...SURROUNDING SITES...

CITY           SKY/WX    TMP DP  RH WIND       PRES   REMARKS
ATLANTA        MOCLDY    67  63  87 SW12      30.05R
ANNISTON       RAIN      62  58  86 W8        30.05R FOG
BIRMINGHAM     RAIN      54  51  90 N10       30.11R FOG
CHATTANOOGA    LGT RAIN  57  53  86 NW5       30.06R FOG
CORINTH        FAIR      52  45  76 NW5G12    30.06R
DALTON         RAIN      61  61 100 CALM      30.04R
GADSDEN        LGT RAIN  56  56 100 NW6       30.09R
GOLDEN TRNGL   CLOUDY    52  51  97 SE7       30.07F
HALEYVILLE     LGT RAIN  52  52 100 CALM      30.08R
JACKSON TN     FAIR      48  43  82 W3        30.08R
MEMPHIS        CLOUDY    46  40  79 NW6       30.10R
NASHVILLE      FAIR      56  52  86 W3        30.02R
ROME           HVY RAIN  62  62 100 W6        30.04R FOG
SAVANNAH       CLEAR     52  46  82 N3        30.07R
SELMER         CLEAR     48  45  87 NW5       30.06R
TUPELO         FAIR      54  51  90 SW6       30.08R
TUSCALOOSA     RAIN      52  51  97 NW9       30.12R FOG
$$

...GULF COAST WEATHER...

CITY           SKY/WX    TMP DP  RH WIND       PRES   REMARKS
GULFPORT       CLOUDY    73  71  93 VRB3      30.03R
PASCAGOULA     FAIR      71  68  90 S3        30.05R
MOBILE         FAIR      69  68  96 S6        30.06R
GULF SHORES    PTSUNNY   69  69 100 CALM      30.07R
DESTIN         FAIR      73  69  87 CALM      30.08R
PANAMA CITY    CLOUDY    70  70 100 SE8       30.10R
APPALACHICOLA  CLOUDY    70  70 100 S9        30.11R
$$





USA.gov is the U.S. government's official web portal to all federal, state and local government web resources and services.